Time,TemperatureF,DewpointF,PressureIn,WindDirection,WindDirectionDegrees,WindSpeedMPH,WindSpeedGustMPH,Humidity,HourlyPrecipIn,Conditions,Clouds,dailyrainin,SoftwareType,DateUTC
2013-02-12 00:00:00,45.1,44.6,29.29,NW,306,0.0,0.0,98,0.04,,,0.00,VWS V14.01,2013-02-12 05:00:00,
2013-02-12 00:05:00,45.0,44.4,29.29,NW,306,0.0,0.0,98,0.04,,,0.00,VWS V14.01,2013-02-12 05:05:00,
2013-02-12 00:10:00,45.0,44.4,29.29,NW,304,0.0,0.0,98,0.04,,,0.00,VWS V14.01,2013-02-12 05:10:00,
2013-02-12 00:15:00,44.6,44.1,29.29,West,277,0.0,0.0,98,0.00,,,0.00,VWS V14.01,2013-02-12 05:15:00,
2013-02-12 00:20:00,44.6,44.1,29.29,NNW,348,0.0,0.0,98,0.00,,,0.00,VWS V14.01,2013-02-12 05:20:00,
2013-02-12 00:25:00,44.2,43.7,29.29,NW,309,0.0,0.0,98,0.00,,,0.00,VWS V14.01,2013-02-12 05:25:00,
2013-02-12 00:30:00,44.2,43.7,29.29,WNW,293,0.0,0.0,98,0.00,,,0.00,VWS V14.01,2013-02-12 05:30:00,
2013-02-12 00:35:00,44.2,43.7,29.29,WNW,290,0.0,0.0,98,0.00,,,0.00,VWS V14.01,2013-02-12 05:35:00,
2013-02-12 00:40:00,44.1,43.5,29.29,SW,215,0.0,0.0,98,0.00,,,0.00,VWS V14.01,2013-02-12 05:40:00,
2013-02-12 00:45:00,43.7,43.2,29.29,WNW,301,0.0,0.0,98,0.00,,,0.00,VWS V14.01,2013-02-12 05:45:00,
2013-02-12 00:50:00,43.5,43.0,29.29,WNW,285,0.0,0.0,98,0.00,,,0.00,VWS V14.01,2013-02-12 05:50:00,
2013-02-12 00:55:00,43.5,43.0,29.29,WSW,257,0.0,0.0,98,0.00,,,0.00,VWS V14.01,2013-02-12 05:55:00,
2013-02-12 01:00:00,43.2,42.6,29.29,WSW,257,0.0,0.0,98,0.00,,,0.00,VWS V14.01,2013-02-12 06:00:00,
2013-02-12 01:05:00,43.2,42.6,29.29,WSW,257,0.0,0.0,98,0.00,,,0.00,VWS V14.01,2013-02-12 06:05:00,
2013-02-12 01:10:00,42.8,42.3,29.29,WSW,257,0.0,0.0,98,0.00,,,0.00,VWS V14.01,2013-02-12 06:10:00,
2013-02-12 01:15:00,42.6,42.1,29.29,WSW,257,0.0,0.0,98,0.04,,,0.04,VWS V14.01,2013-02-12 06:15:00,
2013-02-12 01:20:00,42.4,41.9,29.29,WSW,257,0.0,0.0,98,0.04,,,0.04,VWS V14.01,2013-02-12 06:20:00,
2013-02-12 01:25:00,42.1,41.6,29.29,WSW,257,0.0,0.0,98,0.04,,,0.04,VWS V14.01,2013-02-12 06:25:00,
2013-02-12 01:30:00,41.9,41.4,29.29,WSW,257,0.0,0.0,98,0.04,,,0.04,VWS V14.01,2013-02-12 06:30:00,
2013-02-12 01:35:00,41.5,41.0,29.29,WSW,257,0.0,0.0,98,0.04,,,0.04,VWS V14.01,2013-02-12 06:35:00,
2013-02-12 01:40:00,41.5,41.0,29.29,West,265,0.0,0.0,98,0.04,,,0.04,VWS V14.01,2013-02-12 06:40:00,
2013-02-12 01:45:00,41.4,40.8,29.29,West,281,0.0,0.0,98,0.04,,,0.04,VWS V14.01,2013-02-12 06:45:00,
2013-02-12 01:50:00,41.4,40.8,29.29,SSW,206,0.0,0.0,98,0.04,,,0.04,VWS V14.01,2013-02-12 06:50:00,
2013-02-12 01:55:00,41.0,40.5,29.29,NW,316,0.0,0.0,98,0.04,,,0.04,VWS V14.01,2013-02-12 06:55:00,
2013-02-12 02:00:00,40.6,40.1,29.32,NW,307,0.0,0.0,98,0.04,,,0.04,VWS V14.01,2013-02-12 07:00:00,
2013-02-12 02:05:00,40.1,38.8,29.32,WNW,286,0.0,0.0,95,0.04,,,0.04,VWS V14.01,2013-02-12 07:05:00,
2013-02-12 02:10:00,39.9,38.3,29.32,NW,322,0.0,0.0,94,0.04,,,0.04,VWS V14.01,2013-02-12 07:10:00,
2013-02-12 02:15:00,38.8,35.6,29.32,NW,312,0.0,3.6,88,0.00,,,0.04,VWS V14.01,2013-02-12 07:15:00,
2013-02-12 02:20:00,38.7,32.7,29.32,NW,322,0.0,0.0,79,0.00,,,0.04,VWS V14.01,2013-02-12 07:20:00,
2013-02-12 02:25:00,38.5,31.3,29.32,NW,316,0.0,0.0,75,0.00,,,0.04,VWS V14.01,2013-02-12 07:25:00,
2013-02-12 02:30:00,38.5,30.6,29.32,West,262,0.0,0.0,73,0.00,,,0.04,VWS V14.01,2013-02-12 07:30:00,
2013-02-12 02:35:00,38.1,29.9,29.32,North,353,0.0,0.0,72,0.00,,,0.04,VWS V14.01,2013-02-12 07:35:00,
2013-02-12 02:40:00,37.9,29.4,29.32,West,280,4.9,4.9,71,0.00,,,0.04,VWS V14.01,2013-02-12 07:40:00,
2013-02-12 02:45:00,37.9,28.0,29.32,WNW,286,2.7,4.0,67,0.00,,,0.04,VWS V14.01,2013-02-12 07:45:00,
2013-02-12 02:50:00,37.9,27.2,29.32,WNW,293,2.7,2.7,65,0.00,,,0.04,VWS V14.01,2013-02-12 07:50:00,
2013-02-12 02:55:00,37.8,27.1,29.32,West,269,0.0,0.0,65,0.00,,,0.04,VWS V14.01,2013-02-12 07:55:00,
2013-02-12 03:00:00,37.6,27.3,29.32,WNW,284,0.0,2.7,66,0.00,,,0.04,VWS V14.01,2013-02-12 08:00:00,
2013-02-12 03:05:00,37.2,27.6,29.32,SSW,205,0.0,0.0,68,0.00,,,0.04,VWS V14.01,2013-02-12 08:05:00,
2013-02-12 03:10:00,36.9,27.7,29.32,South,170,0.0,0.0,69,0.00,,,0.04,VWS V14.01,2013-02-12 08:10:00,
2013-02-12 03:15:00,36.7,27.8,29.32,South,170,0.0,0.0,70,0.00,,,0.04,VWS V14.01,2013-02-12 08:15:00,
2013-02-12 03:20:00,36.5,27.7,29.32,WNW,284,0.0,0.0,70,0.00,,,0.04,VWS V14.01,2013-02-12 08:20:00,
2013-02-12 03:25:00,36.3,27.1,29.32,WNW,303,0.0,0.0,69,0.00,,,0.04,VWS V14.01,2013-02-12 08:25:00,
2013-02-12 03:30:00,36.3,27.1,29.32,NW,321,0.0,0.0,69,0.00,,,0.04,VWS V14.01,2013-02-12 08:30:00,
2013-02-12 03:35:00,36.1,27.0,29.32,WSW,250,0.0,0.0,69,0.00,,,0.04,VWS V14.01,2013-02-12 08:35:00,
2013-02-12 03:40:00,36.1,26.3,29.32,West,275,0.0,0.0,67,0.00,,,0.04,VWS V14.01,2013-02-12 08:40:00,
2013-02-12 03:45:00,36.1,25.9,29.32,WNW,282,0.0,0.0,66,0.00,,,0.04,VWS V14.01,2013-02-12 08:45:00,
2013-02-12 03:50:00,36.3,25.7,29.32,West,272,0.0,0.0,65,0.00,,,0.04,VWS V14.01,2013-02-12 08:50:00,
2013-02-12 03:55:00,36.3,25.3,29.32,WNW,299,0.0,0.0,64,0.00,,,0.04,VWS V14.01,2013-02-12 08:55:00,
2013-02-12 04:00:00,36.5,24.7,29.32,WNW,284,0.0,0.0,62,0.00,,,0.04,VWS V14.01,2013-02-12 09:00:00,
2013-02-12 04:05:00,36.5,24.7,29.32,NW,310,0.0,0.0,62,0.00,,,0.04,VWS V14.01,2013-02-12 09:05:00,
2013-02-12 04:10:00,36.5,24.7,29.32,NW,316,0.0,0.0,62,0.00,,,0.04,VWS V14.01,2013-02-12 09:10:00,
2013-02-12 04:15:00,36.5,24.7,29.32,WNW,290,3.1,3.6,62,0.00,,,0.04,VWS V14.01,2013-02-12 09:15:00,
2013-02-12 04:20:00,36.5,24.3,29.32,NW,315,0.0,2.7,61,0.00,,,0.04,VWS V14.01,2013-02-12 09:20:00,
2013-02-12 04:25:00,36.7,24.1,29.32,West,278,0.0,3.1,60,0.00,,,0.04,VWS V14.01,2013-02-12 09:25:00,
2013-02-12 04:30:00,36.7,24.1,29.32,NW,310,4.5,4.5,60,0.00,,,0.04,VWS V14.01,2013-02-12 09:30:00,
2013-02-12 04:35:00,36.5,24.0,29.32,NNW,334,0.0,0.0,60,0.00,,,0.04,VWS V14.01,2013-02-12 09:35:00,
2013-02-12 04:40:00,36.3,23.8,29.32,WNW,293,3.6,3.6,60,0.00,,,0.04,VWS V14.01,2013-02-12 09:40:00,
2013-02-12 04:45:00,36.3,23.8,29.32,WNW,293,0.0,0.0,60,0.00,,,0.04,VWS V14.01,2013-02-12 09:45:00,
2013-02-12 04:50:00,36.3,23.8,29.32,NW,322,3.1,3.1,60,0.00,,,0.04,VWS V14.01,2013-02-12 09:50:00,
2013-02-12 04:55:00,36.3,23.8,29.32,West,270,0.0,0.0,60,0.00,,,0.04,VWS V14.01,2013-02-12 09:55:00,
2013-02-12 05:00:00,36.1,23.6,29.32,WNW,283,3.1,4.9,60,0.00,,,0.04,VWS V14.01,2013-02-12 10:00:00,
2013-02-12 05:05:00,36.3,23.4,29.32,WNW,302,0.0,0.0,59,0.00,,,0.04,VWS V14.01,2013-02-12 10:05:00,
2013-02-12 05:10:00,36.3,23.4,29.32,NW,321,0.0,0.0,59,0.00,,,0.04,VWS V14.01,2013-02-12 10:10:00,
2013-02-12 05:15:00,36.1,23.6,29.32,NW,320,0.0,0.0,60,0.00,,,0.04,VWS V14.01,2013-02-12 10:15:00,
2013-02-12 05:20:00,36.1,23.6,29.32,SSW,211,0.0,0.0,60,0.00,,,0.04,VWS V14.01,2013-02-12 10:20:00,
2013-02-12 05:25:00,36.0,23.8,29.32,NW,320,0.0,0.0,61,0.00,,,0.04,VWS V14.01,2013-02-12 10:25:00,
2013-02-12 05:30:00,35.8,23.7,29.32,NW,322,0.0,0.0,61,0.00,,,0.04,VWS V14.01,2013-02-12 10:30:00,
2013-02-12 05:35:00,35.6,23.5,29.32,West,270,0.0,0.0,61,0.00,,,0.00,VWS V14.01,2013-02-12 10:35:00,
2013-02-12 05:40:00,35.4,23.7,29.32,SE,124,0.0,0.0,62,0.00,,,0.04,VWS V14.01,2013-02-12 10:40:00,
2013-02-12 05:45:00,35.1,23.4,29.32,ENE,76,0.0,0.0,62,0.00,,,0.04,VWS V14.01,2013-02-12 10:45:00,
2013-02-12 05:50:00,34.9,23.6,29.32,NW,319,0.0,0.0,63,0.00,,,0.04,VWS V14.01,2013-02-12 10:50:00,
2013-02-12 05:55:00,35.1,24.1,29.32,NW,319,0.0,0.0,64,0.00,,,0.04,VWS V14.01,2013-02-12 10:55:00,
2013-02-12 06:00:00,35.1,24.1,29.35,NW,319,0.0,0.0,64,0.00,,,0.04,VWS V14.01,2013-02-12 11:00:00,
2013-02-12 06:05:00,34.9,24.0,29.35,NW,319,0.0,0.0,64,0.00,,,0.04,VWS V14.01,2013-02-12 11:05:00,
2013-02-12 06:10:00,34.5,23.6,29.35,NW,320,0.0,0.0,64,0.00,,,0.04,VWS V14.01,2013-02-12 11:10:00,
2013-02-12 06:15:00,34.3,23.8,29.35,NW,319,0.0,0.0,65,0.00,,,0.04,VWS V14.01,2013-02-12 11:15:00,
2013-02-12 06:20:00,34.3,23.8,29.35,NW,319,0.0,0.0,65,0.00,,,0.04,VWS V14.01,2013-02-12 11:20:00,
2013-02-12 06:25:00,34.0,23.8,29.35,NW,319,0.0,0.0,66,0.00,,,0.04,VWS V14.01,2013-02-12 11:25:00,
2013-02-12 06:30:00,33.8,23.7,29.35,NW,319,0.0,0.0,66,0.00,,,0.04,VWS V14.01,2013-02-12 11:30:00,
2013-02-12 06:35:00,33.6,23.9,29.35,WNW,284,0.0,0.0,67,0.00,,,0.04,VWS V14.01,2013-02-12 11:35:00,
2013-02-12 06:40:00,33.6,24.2,29.35,WNW,285,0.0,0.0,68,0.00,,,0.04,VWS V14.01,2013-02-12 11:40:00,
2013-02-12 06:45:00,33.8,24.4,29.35,WNW,283,0.0,0.0,68,0.00,,,0.04,VWS V14.01,2013-02-12 11:45:00,
2013-02-12 06:50:00,33.8,24.4,29.35,WNW,283,0.0,0.0,68,0.00,,,0.04,VWS V14.01,2013-02-12 11:50:00,
2013-02-12 06:55:00,33.6,24.5,29.35,WNW,283,0.0,0.0,69,0.00,,,0.04,VWS V14.01,2013-02-12 11:55:00,
2013-02-12 07:00:00,33.6,24.5,29.35,WNW,283,0.0,0.0,69,0.00,,,0.04,VWS V14.01,2013-02-12 12:00:00,
2013-02-12 07:05:00,33.6,24.5,29.35,WNW,283,0.0,0.0,69,0.00,,,0.04,VWS V14.01,2013-02-12 12:05:00,
2013-02-12 07:10:00,33.8,24.7,29.35,WNW,282,0.0,0.0,69,0.00,,,0.04,VWS V14.01,2013-02-12 12:10:00,
2013-02-12 07:15:00,34.3,25.6,29.35,WNW,283,0.0,0.0,70,0.00,,,0.04,VWS V14.01,2013-02-12 12:15:00,
2013-02-12 07:20:00,34.5,25.8,29.35,WNW,283,0.0,0.0,70,0.00,,,0.04,VWS V14.01,2013-02-12 12:20:00,
2013-02-12 07:25:00,34.7,25.9,29.35,WNW,283,0.0,0.0,70,0.00,,,0.04,VWS V14.01,2013-02-12 12:25:00,
2013-02-12 07:30:00,34.9,26.1,29.35,WNW,283,0.0,0.0,70,0.00,,,0.04,VWS V14.01,2013-02-12 12:30:00,
2013-02-12 07:35:00,34.9,26.1,29.35,WNW,283,0.0,0.0,70,0.00,,,0.04,VWS V14.01,2013-02-12 12:35:00,
2013-02-12 07:40:00,35.1,26.3,29.35,WNW,283,0.0,0.0,70,0.00,,,0.04,VWS V14.01,2013-02-12 12:40:00,
2013-02-12 07:45:00,35.1,26.3,29.35,WNW,283,0.0,0.0,70,0.00,,,0.04,VWS V14.01,2013-02-12 12:45:00,
2013-02-12 07:50:00,35.2,26.5,29.35,WNW,283,0.0,0.0,70,0.00,,,0.04,VWS V14.01,2013-02-12 12:50:00,
2013-02-12 07:54:00,35.4,26.6,29.35,WNW,283,0.0,0.0,70,0.00,,,0.04,VWS V14.01,2013-02-12 12:54:00,
2013-02-12 08:00:00,35.8,26.6,29.35,WNW,283,0.0,0.0,69,0.00,,,0.04,VWS V14.01,2013-02-12 13:00:00,
2013-02-12 08:04:00,35.8,26.6,29.35,WNW,283,0.0,0.0,69,0.00,,,0.04,VWS V14.01,2013-02-12 13:04:00,
2013-02-12 08:09:00,36.0,26.8,29.35,WNW,283,0.0,0.0,69,0.00,,,0.04,VWS V14.01,2013-02-12 13:09:00,
2013-02-12 08:14:00,36.1,27.0,29.35,WNW,283,0.0,0.0,69,0.00,,,0.04,VWS V14.01,2013-02-12 13:14:00,
2013-02-12 08:19:00,36.1,27.0,29.35,West,277,0.0,0.0,69,0.00,,,0.04,VWS V14.01,2013-02-12 13:19:00,
2013-02-12 08:24:00,36.3,26.8,29.35,West,277,0.0,0.0,68,0.00,,,0.04,VWS V14.01,2013-02-12 13:24:00,
2013-02-12 08:29:00,36.5,27.0,29.35,West,277,0.0,0.0,68,0.00,,,0.04,VWS V14.01,2013-02-12 13:29:00,
2013-02-12 08:34:00,36.5,27.0,29.35,West,277,0.0,0.0,68,0.00,,,0.04,VWS V14.01,2013-02-12 13:34:00,
2013-02-12 08:39:00,36.7,27.1,29.35,West,277,0.0,0.0,68,0.00,,,0.04,VWS V14.01,2013-02-12 13:39:00,
2013-02-12 08:44:00,36.9,27.3,29.35,West,277,0.0,0.0,68,0.00,,,0.04,VWS V14.01,2013-02-12 13:44:00,
2013-02-12 08:49:00,37.2,27.6,29.35,WSW,254,0.0,0.0,68,0.00,,,0.04,VWS V14.01,2013-02-12 13:49:00,
2013-02-12 08:54:00,37.2,27.6,29.35,WNW,300,0.0,4.0,68,0.00,,,0.04,VWS V14.01,2013-02-12 13:54:00,
2013-02-12 08:59:00,38.3,24.4,29.35,WNW,288,0.0,2.2,57,0.00,,,0.04,VWS V14.01,2013-02-12 13:59:00,
2013-02-12 09:04:00,38.7,24.8,29.35,WNW,296,0.0,0.0,57,0.00,,,0.04,VWS V14.01,2013-02-12 14:04:00,
2013-02-12 09:09:00,39.2,24.4,29.35,NW,304,0.0,0.0,55,0.00,,,0.04,VWS V14.01,2013-02-12 14:09:00,
2013-02-12 09:14:00,39.6,23.9,29.38,WNW,298,0.0,0.0,53,0.00,,,0.04,VWS V14.01,2013-02-12 14:14:00,
2013-02-12 09:19:00,39.9,23.7,29.38,West,265,0.0,0.0,52,0.00,,,0.04,VWS V14.01,2013-02-12 14:19:00,
2013-02-12 09:24:00,40.3,23.1,29.38,WNW,296,0.0,0.0,50,0.00,,,0.04,VWS V14.01,2013-02-12 14:24:00,
2013-02-12 09:29:00,41.0,23.3,29.38,WNW,294,0.0,0.0,49,0.00,,,0.04,VWS V14.01,2013-02-12 14:29:00,
2013-02-12 09:34:00,41.2,23.5,29.38,NW,314,0.0,0.0,49,0.00,,,0.04,VWS V14.01,2013-02-12 14:34:00,
2013-02-12 09:39:00,41.4,23.6,29.38,WNW,292,0.0,0.0,49,0.00,,,0.04,VWS V14.01,2013-02-12 14:39:00,
2013-02-12 09:44:00,41.4,23.2,29.38,NW,305,0.0,0.0,48,0.00,,,0.04,VWS V14.01,2013-02-12 14:44:00,
2013-02-12 09:49:00,41.9,22.6,29.38,WNW,298,3.6,4.0,46,0.00,,,0.04,VWS V14.01,2013-02-12 14:49:00,
2013-02-12 09:54:00,42.4,22.6,29.35,WNW,302,5.4,5.4,45,0.00,,,0.04,VWS V14.01,2013-02-12 14:54:00,
2013-02-12 09:59:00,43.2,22.2,29.35,NNW,332,4.9,4.9,43,0.00,,,0.04,VWS V14.01,2013-02-12 14:59:00,
2013-02-12 10:04:00,43.7,22.1,29.35,WNW,296,2.7,2.7,42,0.00,,,0.04,VWS V14.01,2013-02-12 15:04:00,
2013-02-12 10:09:00,44.1,22.5,29.35,WSW,257,4.5,4.5,42,0.00,,,0.04,VWS V14.01,2013-02-12 15:09:00,
2013-02-12 10:14:00,44.2,22.6,29.35,WSW,257,4.5,4.5,42,0.00,,,0.04,VWS V14.01,2013-02-12 15:14:00,
2013-02-12 10:19:00,44.6,22.4,29.35,WNW,300,5.4,5.4,41,0.00,,,0.04,VWS V14.01,2013-02-12 15:19:00,
2013-02-12 10:24:00,44.1,21.9,29.35,West,270,5.4,5.4,41,0.00,,,0.04,VWS V14.01,2013-02-12 15:24:00,
2013-02-12 10:29:00,43.2,21.1,29.35,WSW,247,4.9,4.9,41,0.00,,,0.04,VWS V14.01,2013-02-12 15:29:00,
2013-02-12 10:34:00,42.8,20.8,29.35,WNW,298,4.0,4.9,41,0.00,,,0.04,VWS V14.01,2013-02-12 15:34:00,
2013-02-12 10:39:00,42.8,21.3,29.35,WNW,282,3.1,4.0,42,0.00,,,0.04,VWS V14.01,2013-02-12 15:39:00,
2013-02-12 10:44:00,42.4,21.0,29.35,WNW,284,5.4,5.8,42,0.00,,,0.04,VWS V14.01,2013-02-12 15:44:00,
2013-02-12 10:49:00,42.4,21.0,29.35,NW,316,4.0,4.0,42,0.00,,,0.04,VWS V14.01,2013-02-12 15:49:00,
2013-02-12 10:54:00,42.4,21.0,29.35,WNW,292,2.7,2.7,42,0.00,,,0.04,VWS V14.01,2013-02-12 15:54:00,
2013-02-12 10:59:00,42.6,21.1,29.35,WNW,286,0.0,0.0,42,0.00,,,0.04,VWS V14.01,2013-02-12 15:59:00,
2013-02-12 11:04:00,42.6,21.1,29.35,SSW,204,4.0,4.0,42,0.00,,,0.04,VWS V14.01,2013-02-12 16:04:00,
2013-02-12 11:09:00,42.4,21.0,29.38,West,279,4.0,4.0,42,0.00,,,0.04,VWS V14.01,2013-02-12 16:09:00,
2013-02-12 11:14:00,42.4,21.0,29.38,West,263,3.1,3.1,42,0.00,,,0.04,VWS V14.01,2013-02-12 16:14:00,
2013-02-12 11:19:00,42.4,21.0,29.38,NW,326,3.1,3.1,42,0.04,,,0.08,VWS V14.01,2013-02-12 16:19:00,
2013-02-12 11:24:00,42.1,20.7,29.38,NW,304,5.4,5.4,42,0.04,,,0.08,VWS V14.01,2013-02-12 16:24:00,
2013-02-12 11:29:00,42.1,20.7,29.38,WNW,300,6.3,6.3,42,0.04,,,0.08,VWS V14.01,2013-02-12 16:29:00,
2013-02-12 11:34:00,43.5,21.4,29.38,WNW,301,2.7,2.7,41,0.04,,,0.08,VWS V14.01,2013-02-12 16:34:00,
2013-02-12 11:39:00,43.5,21.4,29.38,WNW,301,2.7,2.7,41,0.04,,,0.08,VWS V14.01,2013-02-12 16:39:00,
2013-02-12 11:44:00,43.5,21.4,29.38,WSW,247,8.3,8.3,41,0.04,,,0.08,VWS V14.01,2013-02-12 16:44:00,
2013-02-12 11:49:00,43.3,20.6,29.38,WNW,287,3.6,3.6,40,0.04,,,0.08,VWS V14.01,2013-02-12 16:49:00,
2013-02-12 11:54:00,42.8,20.8,29.38,WNW,287,3.6,3.6,41,0.04,,,0.08,VWS V14.01,2013-02-12 16:54:00,
2013-02-12 11:59:00,42.6,20.6,29.38,West,262,4.0,4.0,41,0.04,,,0.08,VWS V14.01,2013-02-12 16:59:00,
2013-02-12 12:04:00,42.4,20.4,29.38,West,277,5.8,5.8,41,0.04,,,0.08,VWS V14.01,2013-02-12 17:04:00,
2013-02-12 12:09:00,42.4,20.4,29.38,WNW,298,4.0,4.0,41,0.04,,,0.08,VWS V14.01,2013-02-12 17:09:00,
2013-02-12 12:14:00,42.6,20.6,29.38,WNW,299,0.0,6.3,41,0.04,,,0.08,VWS V14.01,2013-02-12 17:14:00,
2013-02-12 12:19:00,43.0,20.9,29.38,WNW,287,6.3,6.3,41,0.00,,,0.08,VWS V14.01,2013-02-12 17:19:00,
2013-02-12 12:24:00,43.0,20.9,29.38,WNW,290,4.0,4.0,41,0.00,,,0.08,VWS V14.01,2013-02-12 17:24:00,
2013-02-12 12:29:00,43.2,21.1,29.38,North,350,4.9,4.9,41,0.00,,,0.08,VWS V14.01,2013-02-12 17:29:00,
2013-02-12 12:34:00,43.2,21.1,29.38,WSW,246,5.4,5.8,41,0.00,,,0.08,VWS V14.01,2013-02-12 17:34:00,
2013-02-12 12:39:00,43.3,21.2,29.38,West,269,2.7,2.7,41,0.00,,,0.08,VWS V14.01,2013-02-12 17:39:00,
2013-02-12 12:44:00,43.5,21.4,29.38,North,0,5.4,5.4,41,0.00,,,0.08,VWS V14.01,2013-02-12 17:44:00,
2013-02-12 12:49:00,43.7,21.6,29.38,NW,311,3.1,3.1,41,0.00,,,0.08,VWS V14.01,2013-02-12 17:49:00,
2013-02-12 12:54:00,44.2,22.0,29.38,North,353,2.7,2.7,41,0.00,,,0.08,VWS V14.01,2013-02-12 17:54:00,
2013-02-12 12:59:00,44.2,22.0,29.38,North,357,4.5,4.5,41,0.00,,,0.08,VWS V14.01,2013-02-12 17:59:00,
2013-02-12 13:04:00,43.7,21.0,29.38,NW,323,4.9,4.9,40,0.00,,,0.08,VWS V14.01,2013-02-12 18:04:00,
2013-02-12 13:09:00,43.3,21.2,29.38,ENE,57,3.1,3.1,41,0.00,,,0.08,VWS V14.01,2013-02-12 18:09:00,
2013-02-12 13:14:00,43.2,21.1,29.38,WNW,286,2.7,2.7,41,0.00,,,0.08,VWS V14.01,2013-02-12 18:14:00,
2013-02-12 13:19:00,43.2,21.1,29.38,West,274,5.8,5.8,41,0.00,,,0.08,VWS V14.01,2013-02-12 18:19:00,
2013-02-12 13:24:00,43.2,21.1,29.38,West,280,5.8,5.8,41,0.00,,,0.08,VWS V14.01,2013-02-12 18:24:00,
2013-02-12 13:29:00,43.2,21.1,29.38,WNW,301,3.6,3.6,41,0.00,,,0.08,VWS V14.01,2013-02-12 18:29:00,
2013-02-12 13:34:00,43.3,21.8,29.38,WNW,302,3.1,3.1,42,0.00,,,0.08,VWS V14.01,2013-02-12 18:34:00,
2013-02-12 13:39:00,44.4,22.2,29.38,WNW,297,4.9,4.9,41,0.00,,,0.08,VWS V14.01,2013-02-12 18:39:00,
2013-02-12 13:44:00,44.4,22.2,29.38,WNW,298,4.0,4.0,41,0.00,,,0.08,VWS V14.01,2013-02-12 18:44:00,
2013-02-12 13:49:00,44.8,22.0,29.38,WNW,285,3.6,3.6,40,0.00,,,0.08,VWS V14.01,2013-02-12 18:49:00,
2013-02-12 13:54:00,44.2,22.0,29.38,WNW,293,2.7,2.7,41,0.00,,,0.08,VWS V14.01,2013-02-12 18:54:00,
2013-02-12 13:59:00,43.7,21.6,29.38,WNW,287,3.1,4.0,41,0.00,,,0.08,VWS V14.01,2013-02-12 18:59:00,
2013-02-12 14:04:00,43.7,21.6,29.38,WNW,302,2.2,2.2,41,0.00,,,0.08,VWS V14.01,2013-02-12 19:04:00,
2013-02-12 14:09:00,43.3,21.8,29.38,WNW,284,5.4,5.4,42,0.00,,,0.08,VWS V14.01,2013-02-12 19:09:00,
2013-02-12 14:14:00,43.7,22.1,29.41,West,276,4.0,4.0,42,0.00,,,0.08,VWS V14.01,2013-02-12 19:14:00,
2013-02-12 14:19:00,43.7,22.1,29.41,West,273,5.4,5.4,42,0.00,,,0.08,VWS V14.01,2013-02-12 19:19:00,
2013-02-12 14:24:00,44.1,21.9,29.41,WNW,302,3.1,3.1,41,0.00,,,0.08,VWS V14.01,2013-02-12 19:24:00,
2013-02-12 14:29:00,43.2,21.6,29.41,WNW,292,0.0,0.0,42,0.00,,,0.08,VWS V14.01,2013-02-12 19:29:00,
2013-02-12 14:34:00,43.0,21.5,29.41,NW,316,0.0,0.0,42,0.00,,,0.08,VWS V14.01,2013-02-12 19:34:00,
2013-02-12 14:39:00,42.4,21.5,29.41,WNW,293,4.0,4.0,43,0.00,,,0.08,VWS V14.01,2013-02-12 19:39:00,
2013-02-12 14:44:00,42.1,21.2,29.41,West,260,3.1,3.1,43,0.00,,,0.08,VWS V14.01,2013-02-12 19:44:00,
2013-02-12 14:49:00,42.1,21.2,29.41,NW,310,3.6,3.6,43,0.00,,,0.08,VWS V14.01,2013-02-12 19:49:00,
2013-02-12 14:54:00,41.5,21.3,29.41,NW,315,3.1,3.1,44,0.00,,,0.08,VWS V14.01,2013-02-12 19:54:00,
2013-02-12 14:59:00,41.4,21.6,29.41,WNW,290,3.6,5.4,45,0.00,,,0.08,VWS V14.01,2013-02-12 19:59:00,
2013-02-12 15:04:00,41.2,21.5,29.41,WNW,294,2.2,6.3,45,0.00,,,0.08,VWS V14.01,2013-02-12 20:04:00,
2013-02-12 15:09:00,41.0,21.8,29.41,WNW,295,2.7,2.7,46,0.00,,,0.08,VWS V14.01,2013-02-12 20:09:00,
2013-02-12 15:14:00,41.0,21.8,29.41,WNW,291,2.7,2.7,46,0.00,,,0.08,VWS V14.01,2013-02-12 20:14:00,
2013-02-12 15:19:00,41.0,21.8,29.41,NW,305,4.0,4.0,46,0.00,,,0.08,VWS V14.01,2013-02-12 20:19:00,
2013-02-12 15:24:00,40.6,22.0,29.41,NW,318,3.1,3.1,47,0.00,,,0.08,VWS V14.01,2013-02-12 20:24:00,
2013-02-12 15:29:00,40.6,22.0,29.41,WNW,297,4.0,4.0,47,0.00,,,0.08,VWS V14.01,2013-02-12 20:29:00,
2013-02-12 15:34:00,40.6,22.0,29.41,WNW,303,6.7,6.7,47,0.00,,,0.08,VWS V14.01,2013-02-12 20:34:00,
2013-02-12 15:39:00,40.6,21.5,29.41,NW,323,3.1,3.1,46,0.00,,,0.08,VWS V14.01,2013-02-12 20:39:00,
2013-02-12 15:44:00,40.6,22.0,29.41,WSW,258,3.1,5.4,47,0.00,,,0.08,VWS V14.01,2013-02-12 20:44:00,
2013-02-12 15:49:00,40.6,22.0,29.41,NW,317,3.1,5.8,47,0.00,,,0.08,VWS V14.01,2013-02-12 20:49:00,
2013-02-12 15:54:00,40.6,22.0,29.41,West,275,3.1,3.1,47,0.00,,,0.08,VWS V14.01,2013-02-12 20:54:00,
2013-02-12 15:59:00,40.6,22.5,29.41,WNW,289,4.0,4.0,48,0.00,,,0.08,VWS V14.01,2013-02-12 20:59:00,
2013-02-12 16:04:00,40.5,21.8,29.41,NNE,27,3.6,3.6,47,0.00,,,0.08,VWS V14.01,2013-02-12 21:04:00,
2013-02-12 16:09:00,40.6,22.5,29.41,WNW,300,2.7,2.7,48,0.00,,,0.08,VWS V14.01,2013-02-12 21:09:00,
2013-02-12 16:14:00,40.8,22.2,29.41,WSW,244,8.3,8.3,47,0.00,,,0.08,VWS V14.01,2013-02-12 21:14:00,
2013-02-12 16:19:00,41.0,22.3,29.41,WNW,296,3.1,3.6,47,0.00,,,0.08,VWS V14.01,2013-02-12 21:19:00,
2013-02-12 16:24:00,41.0,22.3,29.41,WNW,283,2.7,4.0,47,0.00,,,0.08,VWS V14.01,2013-02-12 21:24:00,
2013-02-12 16:29:00,40.5,22.3,29.41,NW,312,0.0,3.1,48,0.00,,,0.08,VWS V14.01,2013-02-12 21:29:00,
2013-02-12 16:34:00,40.1,22.5,29.41,NW,312,0.0,0.0,49,0.00,,,0.08,VWS V14.01,2013-02-12 21:34:00,
2013-02-12 16:39:00,39.9,22.3,29.41,WNW,296,2.7,2.7,49,0.00,,,0.08,VWS V14.01,2013-02-12 21:39:00,
2013-02-12 16:44:00,39.6,22.0,29.41,WNW,288,2.7,2.7,49,0.00,,,0.08,VWS V14.01,2013-02-12 21:44:00,
2013-02-12 16:49:00,39.6,22.0,29.41,NW,307,2.7,2.7,49,0.00,,,0.08,VWS V14.01,2013-02-12 21:49:00,
2013-02-12 16:54:00,39.4,22.3,29.41,WNW,287,0.0,0.0,50,0.00,,,0.08,VWS V14.01,2013-02-12 21:54:00,
2013-02-12 16:59:00,39.2,22.1,29.41,WNW,299,0.0,0.0,50,0.00,,,0.08,VWS V14.01,2013-02-12 21:59:00,
2013-02-12 17:04:00,39.0,22.0,29.41,WNW,297,4.0,4.0,50,0.00,,,0.08,VWS V14.01,2013-02-12 22:04:00,
2013-02-12 17:09:00,38.8,22.3,29.41,WSW,248,0.0,0.0,51,0.00,,,0.08,VWS V14.01,2013-02-12 22:09:00,
2013-02-12 17:14:00,38.7,22.1,29.41,West,280,0.0,0.0,51,0.00,,,0.08,VWS V14.01,2013-02-12 22:14:00,
2013-02-12 17:19:00,38.7,22.1,29.41,NW,310,0.0,0.0,51,0.00,,,0.08,VWS V14.01,2013-02-12 22:19:00,
2013-02-12 17:24:00,38.7,22.1,29.41,NW,308,0.0,0.0,51,0.00,,,0.08,VWS V14.01,2013-02-12 22:24:00,
2013-02-12 17:29:00,38.5,21.9,29.41,NW,304,0.0,0.0,51,0.00,,,0.08,VWS V14.01,2013-02-12 22:29:00,
2013-02-12 17:34:00,38.5,22.4,29.41,WNW,293,2.2,2.2,52,0.00,,,0.08,VWS V14.01,2013-02-12 22:34:00,
2013-02-12 17:39:00,38.3,22.2,29.41,WNW,295,3.6,3.6,52,0.00,,,0.08,VWS V14.01,2013-02-12 22:39:00,
2013-02-12 17:44:00,38.3,22.2,29.41,WNW,289,3.1,3.1,52,0.00,,,0.08,VWS V14.01,2013-02-12 22:44:00,
2013-02-12 17:49:00,38.1,22.5,29.41,WNW,291,4.0,4.0,53,0.00,,,0.08,VWS V14.01,2013-02-12 22:49:00,
2013-02-12 17:54:00,38.1,22.1,29.41,WNW,303,2.7,2.7,52,0.00,,,0.08,VWS V14.01,2013-02-12 22:54:00,
2013-02-12 17:59:00,38.1,22.5,29.41,WNW,296,0.0,0.0,53,0.00,,,0.08,VWS V14.01,2013-02-12 22:59:00,
2013-02-12 18:04:00,37.9,22.4,29.41,SSE,158,0.0,0.0,53,0.00,,,0.08,VWS V14.01,2013-02-12 23:04:00,
2013-02-12 18:09:00,37.8,22.2,29.41,NE,43,0.0,0.0,53,0.00,,,0.08,VWS V14.01,2013-02-12 23:09:00,
2013-02-12 18:14:00,37.8,22.2,29.41,WNW,301,2.2,2.2,53,0.00,,,0.08,VWS V14.01,2013-02-12 23:14:00,
2013-02-12 18:19:00,37.8,22.2,29.41,WNW,302,0.0,0.0,53,0.00,,,0.08,VWS V14.01,2013-02-12 23:19:00,
2013-02-12 18:24:00,37.6,22.0,29.41,West,268,3.6,3.6,53,0.00,,,0.08,VWS V14.01,2013-02-12 23:24:00,
2013-02-12 18:29:00,37.4,22.3,29.44,NW,308,3.1,3.1,54,0.00,,,0.08,VWS V14.01,2013-02-12 23:29:00,
2013-02-12 18:34:00,37.4,22.3,29.44,WNW,298,2.7,2.7,54,0.00,,,0.08,VWS V14.01,2013-02-12 23:34:00,
2013-02-12 18:39:00,37.4,22.3,29.44,WNW,303,2.2,3.6,54,0.00,,,0.08,VWS V14.01,2013-02-12 23:39:00,
2013-02-12 18:44:00,37.2,22.1,29.44,WSW,239,0.0,0.0,54,0.00,,,0.08,VWS V14.01,2013-02-12 23:44:00,
2013-02-12 18:49:00,37.2,22.6,29.44,WSW,258,0.0,0.0,55,0.00,,,0.08,VWS V14.01,2013-02-12 23:49:00,
2013-02-12 18:54:00,37.2,22.6,29.44,NW,323,0.0,0.0,55,0.00,,,0.08,VWS V14.01,2013-02-12 23:54:00,
2013-02-12 18:59:00,37.4,22.3,29.47,NW,311,0.0,0.0,54,0.00,,,0.08,VWS V14.01,2013-02-12 23:59:00,
2013-02-12 19:04:00,37.6,22.5,29.47,WNW,285,4.0,4.0,54,0.00,,,0.08,VWS V14.01,2013-02-13 00:04:00,
2013-02-12 19:09:00,37.6,22.0,29.47,WNW,297,2.2,2.2,53,0.00,,,0.08,VWS V14.01,2013-02-13 00:09:00,
2013-02-12 19:14:00,37.8,22.2,29.47,WNW,299,3.1,3.1,53,0.00,,,0.08,VWS V14.01,2013-02-13 00:14:00,
2013-02-12 19:19:00,37.9,22.4,29.47,NW,309,4.0,4.0,53,0.00,,,0.08,VWS V14.01,2013-02-13 00:19:00,
2013-02-12 19:24:00,37.9,22.4,29.47,NW,312,3.1,3.1,53,0.00,,,0.08,VWS V14.01,2013-02-13 00:24:00,
2013-02-12 19:29:00,37.9,22.4,29.50,WNW,283,4.9,4.9,53,0.00,,,0.08,VWS V14.01,2013-02-13 00:29:00,
2013-02-12 19:34:00,37.9,22.4,29.50,WNW,288,2.2,2.2,53,0.00,,,0.08,VWS V14.01,2013-02-13 00:34:00,
2013-02-12 19:39:00,37.8,22.2,29.50,WSW,253,0.0,0.0,53,0.00,,,0.08,VWS V14.01,2013-02-13 00:39:00,
2013-02-12 19:44:00,37.6,22.0,29.50,West,279,4.0,4.0,53,0.00,,,0.08,VWS V14.01,2013-02-13 00:44:00,
2013-02-12 19:49:00,37.6,22.0,29.50,West,265,3.6,3.6,53,0.00,,,0.08,VWS V14.01,2013-02-13 00:49:00,
2013-02-12 19:54:00,37.6,22.0,29.50,WNW,286,4.0,4.0,53,0.00,,,0.08,VWS V14.01,2013-02-13 00:54:00,
2013-02-12 19:59:00,37.6,21.6,29.53,WNW,293,3.6,3.6,52,0.00,,,0.08,VWS V14.01,2013-02-13 00:59:00,
2013-02-12 20:04:00,37.6,21.6,29.53,NW,306,3.1,3.1,52,0.00,,,0.08,VWS V14.01,2013-02-13 01:04:00,
2013-02-12 20:09:00,37.6,21.6,29.53,West,279,4.9,6.3,52,0.00,,,0.08,VWS V14.01,2013-02-13 01:09:00,
2013-02-12 20:14:00,37.6,21.6,29.53,WNW,299,4.0,5.4,52,0.00,,,0.08,VWS V14.01,2013-02-13 01:14:00,
2013-02-12 20:19:00,37.6,22.0,29.53,NW,311,4.0,4.0,53,0.00,,,0.08,VWS V14.01,2013-02-13 01:19:00,
2013-02-12 20:24:00,37.6,21.6,29.53,WNW,294,4.0,4.0,52,0.00,,,0.08,VWS V14.01,2013-02-13 01:24:00,
2013-02-12 20:29:00,37.4,21.9,29.53,WNW,298,2.7,2.7,53,0.00,,,0.08,VWS V14.01,2013-02-13 01:29:00,
2013-02-12 20:34:00,37.4,21.9,29.53,WNW,298,0.0,0.0,53,0.00,,,0.08,VWS V14.01,2013-02-13 01:34:00,
2013-02-12 20:39:00,37.2,21.7,29.53,WNW,301,0.0,0.0,53,0.00,,,0.08,VWS V14.01,2013-02-13 01:39:00,
2013-02-12 20:44:00,37.0,21.5,29.53,WNW,288,2.7,2.7,53,0.00,,,0.08,VWS V14.01,2013-02-13 01:44:00,
2013-02-12 20:49:00,37.0,21.5,29.53,NW,324,2.2,2.2,53,0.00,,,0.08,VWS V14.01,2013-02-13 01:49:00,
2013-02-12 20:54:00,37.0,21.5,29.53,WNW,291,2.7,2.7,53,0.00,,,0.08,VWS V14.01,2013-02-13 01:54:00,
2013-02-12 20:59:00,36.9,21.3,29.53,NW,312,0.0,0.0,53,0.00,,,0.08,VWS V14.01,2013-02-13 01:59:00,
2013-02-12 21:04:00,36.9,21.3,29.53,WNW,294,3.6,3.6,53,0.00,,,0.08,VWS V14.01,2013-02-13 02:04:00,
2013-02-12 21:09:00,36.7,21.2,29.53,WNW,293,3.1,3.1,53,0.00,,,0.08,VWS V14.01,2013-02-13 02:09:00,
2013-02-12 21:14:00,36.5,21.0,29.53,West,268,0.0,0.0,53,0.00,,,0.08,VWS V14.01,2013-02-13 02:14:00,
2013-02-12 21:19:00,36.5,20.6,29.53,WNW,288,3.1,3.1,52,0.00,,,0.08,VWS V14.01,2013-02-13 02:19:00,
2013-02-12 21:24:00,36.3,20.4,29.53,WNW,297,0.0,0.0,52,0.00,,,0.08,VWS V14.01,2013-02-13 02:24:00,
2013-02-12 21:29:00,36.3,20.4,29.53,WNW,289,2.7,2.7,52,0.00,,,0.08,VWS V14.01,2013-02-13 02:29:00,
2013-02-12 21:34:00,36.1,20.2,29.53,WNW,295,3.1,3.6,52,0.00,,,0.08,VWS V14.01,2013-02-13 02:34:00,
2013-02-12 21:39:00,36.1,20.2,29.53,WNW,289,3.6,3.6,52,0.00,,,0.08,VWS V14.01,2013-02-13 02:39:00,
2013-02-12 21:44:00,36.0,20.1,29.53,WNW,299,0.0,0.0,52,0.00,,,0.08,VWS V14.01,2013-02-13 02:44:00,
2013-02-12 21:49:00,35.8,19.9,29.53,NW,307,0.0,0.0,52,0.00,,,0.08,VWS V14.01,2013-02-13 02:49:00,
2013-02-12 21:54:00,35.6,20.2,29.53,WNW,286,0.0,0.0,53,0.00,,,0.08,VWS V14.01,2013-02-13 02:54:00,
2013-02-12 21:59:00,35.2,20.3,29.53,WNW,293,0.0,0.0,54,0.00,,,0.08,VWS V14.01,2013-02-13 02:59:00,
2013-02-12 22:04:00,35.2,20.3,29.53,WNW,297,0.0,0.0,54,0.00,,,0.08,VWS V14.01,2013-02-13 03:04:00,
2013-02-12 22:09:00,35.1,19.7,29.53,WNW,292,0.0,0.0,53,0.00,,,0.08,VWS V14.01,2013-02-13 03:09:00,
2013-02-12 22:14:00,34.9,19.9,29.53,WNW,292,0.0,0.0,54,0.00,,,0.08,VWS V14.01,2013-02-13 03:14:00,
2013-02-12 22:19:00,34.9,19.5,29.53,WNW,298,3.1,3.1,53,0.00,,,0.08,VWS V14.01,2013-02-13 03:19:00,
2013-02-12 22:24:00,34.9,19.5,29.50,NW,314,0.0,0.0,53,0.00,,,0.08,VWS V14.01,2013-02-13 03:24:00,
2013-02-12 22:29:00,34.7,19.3,29.50,NW,312,0.0,0.0,53,0.00,,,0.08,VWS V14.01,2013-02-13 03:29:00,
2013-02-12 22:34:00,34.5,19.6,29.50,NW,310,0.0,0.0,54,0.00,,,0.08,VWS V14.01,2013-02-13 03:34:00,
2013-02-12 22:39:00,34.3,19.4,29.50,WNW,296,0.0,0.0,54,0.00,,,0.08,VWS V14.01,2013-02-13 03:39:00,
2013-02-12 22:44:00,34.2,19.3,29.50,WNW,296,0.0,0.0,54,0.00,,,0.08,VWS V14.01,2013-02-13 03:44:00,
2013-02-12 22:49:00,34.0,19.1,29.50,WNW,296,0.0,0.0,54,0.00,,,0.08,VWS V14.01,2013-02-13 03:49:00,
2013-02-12 22:54:00,33.4,18.6,29.50,WNW,296,0.0,0.0,54,0.00,,,0.08,VWS V14.01,2013-02-13 03:54:00,
2013-02-12 22:59:00,32.9,18.5,29.50,WNW,296,0.0,0.0,55,0.00,,,0.08,VWS V14.01,2013-02-13 03:59:00,
2013-02-12 23:04:00,32.5,18.2,29.50,WNW,296,0.0,0.0,55,0.00,,,0.08,VWS V14.01,2013-02-13 04:04:00,
2013-02-12 23:09:00,32.2,17.8,29.50,WNW,296,0.0,0.0,55,0.00,,,0.08,VWS V14.01,2013-02-13 04:09:00,
2013-02-12 23:14:00,31.6,17.3,29.50,WNW,296,0.0,0.0,55,0.00,,,0.08,VWS V14.01,2013-02-13 04:14:00,
2013-02-12 23:19:00,31.5,17.2,29.50,WNW,296,0.0,0.0,55,0.00,,,0.08,VWS V14.01,2013-02-13 04:19:00,
2013-02-12 23:24:00,31.3,17.4,29.50,WNW,296,0.0,0.0,56,0.00,,,0.08,VWS V14.01,2013-02-13 04:24:00,
2013-02-12 23:29:00,30.9,17.1,29.50,WNW,296,0.0,0.0,56,0.00,,,0.08,VWS V14.01,2013-02-13 04:29:00,
2013-02-12 23:34:00,30.6,16.7,29.50,WNW,296,0.0,0.0,56,0.00,,,0.08,VWS V14.01,2013-02-13 04:34:00,
2013-02-12 23:39:00,30.4,17.0,29.50,WNW,296,0.0,0.0,57,0.00,,,0.08,VWS V14.01,2013-02-13 04:39:00,
2013-02-12 23:44:00,30.2,17.2,29.50,WNW,296,0.0,0.0,58,0.00,,,0.08,VWS V14.01,2013-02-13 04:44:00,
2013-02-12 23:49:00,30.2,17.2,29.50,WNW,296,0.0,0.0,58,0.00,,,0.08,VWS V14.01,2013-02-13 04:49:00,
2013-02-12 23:54:00,30.0,17.4,29.50,WNW,296,0.0,0.0,59,0.00,,,0.08,VWS V14.01,2013-02-13 04:54:00,
2013-02-12 23:59:00,29.7,17.1,29.50,WNW,296,0.0,0.0,59,0.00,,,0.08,VWS V14.01,2013-02-13 04:59:00,